Tracking 19242 objects as of 19-Sep-2018
HD Live streaming from Space Station
objects crossing your sky now

SIRIUSSAT-2 (SXC1-182)

Track SIRIUSSAT-2 (SXC1-182) now!
10-day predictions
SIRIUSSAT-2 (SXC1-182) is classified as:


NORAD ID: 43596
Int'l Code: 1998-067PH
Perigee: 407.0 km
Apogee: 412.8 km
Inclination: 51.6 °
Period: 92.6 minutes
Semi major axis: 6780 km
RCS: Unknown
Launch date: November 20, 1998
Source: Commonwealth of Independent States (former USSR) (CIS)
Launch site: TYURATAM MISSILE AND SPACE COMPLEX (TTMTR)
Uplink (MHz):
Downlink (MHz): 435.670
Beacon (MHz):
Mode: 4800bps GMSK
Call sign: RS14S
Status: Active

aabbcc
Your satellite tracking list
Your tracking list is empty




NASA's NSSDC Master Catalog

Two Line Element Set (TLE):
1 43596U 98067PH  18261.89947266  .00008846  00000-0  13739-3 0  9998
2 43596  51.6418 271.5357 0004275 150.6570 277.4310 15.54791544  5314
Source of the keplerian elements: AMSAT